| time (UTC) | temp F | wind direction | speed MPH | gust MPH | rain 1hr in | rain 24hr in | rain mn in | humidity % | barometer mb |
| 20260831231918 | 94 | 200 | 6.0 | 15.0 | 0.00 | 0.00 | 0.00 | 29 | 1015.7 |
| 20260831231133 | 94 | 121 | 3.0 | 13.0 | 0.00 | 0.00 | 0.00 | 29 | 1015.8 |
| 20260831230633 | 94 | 133 | 5.0 | 13.0 | 0.00 | 0.00 | 0.00 | 28 | 1015.9 |
| 20260831225758 | 94 | 93 | 6.0 | 16.0 | 0.00 | 0.00 | 0.00 | 28 | 1015.9 |
| 20260831225257 | 94 | 173 | 7.0 | 16.0 | 0.00 | 0.00 | 0.00 | 29 | 1015.9 |
| 20260831224757 | 95 | 100 | 6.0 | 17.0 | 0.00 | 0.00 | 0.00 | 29 | 1016.1 |
| 20260831224258 | 95 | 180 | 5.0 | 17.0 | 0.00 | 0.00 | 0.00 | 29 | 1016.1 |
| 20260831224123 | 95 | 134 | 8.0 | 20.0 | 0.00 | 0.00 | 0.00 | 29 | 1015.9 |
| 20260831223257 | 95 | 131 | 4.0 | 20.0 | 0.00 | 0.00 | 0.00 | 29 | 1016.1 |
| 20260831222758 | 95 | 116 | 8.0 | 14.0 | 0.00 | 0.00 | 0.00 | 29 | 1016.1 |
| 20260831222259 | 95 | 168 | 6.0 | 14.0 | 0.00 | 0.00 | 0.00 | 29 | 1016.3 |
| 20260831221758 | 96 | 118 | 4.0 | 12.0 | 0.00 | 0.00 | 0.00 | 28 | 1016.2 |
| 20260831221258 | 95 | 154 | 5.0 | 13.0 | 0.00 | 0.00 | 0.00 | 29 | 1016.3 |
| 20260831220757 | 95 | 162 | 6.0 | 15.0 | 0.00 | 0.00 | 0.00 | 28 | 1016.2 |
| 20260831220257 | 96 | 113 | 7.0 | 15.0 | 0.00 | 0.00 | 0.00 | 28 | 1016.2 |
| 20260831215758 | 96 | 116 | 4.0 | 14.0 | 0.00 | 0.00 | 0.00 | 29 | 1016.2 |
| 20260831215638 | 95 | 124 | 7.0 | 14.0 | 0.00 | 0.00 | 0.00 | 29 | 1016.3 |
| 20260831214759 | 95 | 96 | 6.0 | 19.0 | 0.00 | 0.00 | 0.00 | 29 | 1016.4 |
| 20260831214257 | 96 | 109 | 5.0 | 19.0 | 0.00 | 0.00 | 0.00 | 28 | 1016.4 |
| 20260831213800 | 97 | 179 | 7.0 | 15.0 | 0.00 | 0.00 | 0.00 | 29 | 1016.4 |
| 20260831213523 | 96 | 99 | 6.0 | 12.0 | 0.00 | 0.00 | 0.00 | 28 | 1016.5 |
| 20260831213422 | 96 | 94 | 5.0 | 13.0 | 0.00 | 0.00 | 0.00 | 28 | 1016.4 |
| 20260831212257 | 96 | 114 | 6.0 | 15.0 | 0.00 | 0.00 | 0.00 | 28 | 1016.6 |
| 20260831211759 | 97 | 133 | 7.0 | 15.0 | 0.00 | 0.00 | 0.00 | 28 | 1016.7 |
| 20260831211257 | 97 | 130 | 4.0 | 13.0 | 0.00 | 0.00 | 0.00 | 29 | 1016.8 |
| 20260831210757 | 96 | 185 | 5.0 | 13.0 | 0.00 | 0.00 | 0.00 | 30 | 1016.8 |
| 20260831210257 | 96 | 152 | 6.0 | 17.0 | 0.00 | 0.00 | 0.00 | 29 | 1016.8 |
| 20260831205757 | 96 | 104 | 6.0 | 17.0 | 0.00 | 0.00 | 0.00 | 29 | 1016.9 |
| 20260831205258 | 96 | 237 | 6.0 | 13.0 | 0.00 | 0.00 | 0.00 | 28 | 1016.9 |
| 20260831204757 | 97 | 99 | 8.0 | 13.0 | 0.00 | 0.00 | 0.00 | 27 | 1017.1 |
| 20260831204259 | 97 | 145 | 5.0 | 12.0 | 0.00 | 0.00 | 0.00 | 28 | 1016.9 |
| 20260831203800 | 97 | 133 | 7.0 | 15.0 | 0.00 | 0.00 | 0.00 | 28 | 1017.1 |
| 20260831203638 | 97 | 83 | 9.0 | 15.0 | 0.00 | 0.00 | 0.00 | 28 | 1017.2 |
| 20260831202757 | 96 | 73 | 8.0 | 13.0 | 0.00 | 0.00 | 0.00 | 28 | 1017.4 |
| 20260831202258 | 97 | 172 | 4.0 | 13.0 | 0.00 | 0.00 | 0.00 | 28 | 1017.3 |
| 20260831201757 | 96 | 179 | 5.0 | 13.0 | 0.00 | 0.00 | 0.00 | 28 | 1017.5 |
| 20260831201257 | 96 | 89 | 6.0 | 11.0 | 0.00 | 0.00 | 0.00 | 29 | 1017.5 |
| 20260831200758 | 97 | 138 | 6.0 | 11.0 | 0.00 | 0.00 | 0.00 | 29 | 1017.6 |
| 20260831200259 | 96 | 113 | 3.0 | 12.0 | 0.00 | 0.00 | 0.00 | 29 | 1017.7 |
| 20260831195757 | 96 | 114 | 4.0 | 14.0 | 0.00 | 0.00 | 0.00 | 29 | 1017.8 |
| 20260831195642 | 96 | 168 | 4.0 | 14.0 | 0.00 | 0.00 | 0.00 | 29 | 1017.8 |
| 20260831195143 | 96 | 175 | 8.0 | 14.0 | 0.00 | 0.00 | 0.00 | 31 | 1018.1 |
| 20260831194256 | 96 | 147 | 4.0 | 14.0 | 0.00 | 0.00 | 0.00 | 30 | 1018.0 |
| 20260831193801 | 96 | 100 | 5.0 | 15.0 | 0.00 | 0.00 | 0.00 | 30 | 1017.8 |
| 20260831193256 | 96 | 134 | 7.0 | 15.0 | 0.00 | 0.00 | 0.00 | 30 | 1018.0 |
| 20260831192757 | 96 | 221 | 6.0 | 13.0 | 0.00 | 0.00 | 0.00 | 31 | 1018.0 |
| 20260831192626 | 96 | 244 | 5.0 | 9.0 | 0.00 | 0.00 | 0.00 | 31 | 1018.1 |
| 20260831191758 | 96 | 259 | 3.0 | 12.0 | 0.00 | 0.00 | 0.00 | 31 | 1018.1 |
| 20260831191258 | 96 | 157 | 4.0 | 15.0 | 0.00 | 0.00 | 0.00 | 31 | 1018.2 |
| 20260831190757 | 95 | 148 | 7.0 | 15.0 | 0.00 | 0.00 | 0.00 | 32 | 1018.1 |
| 20260831190257 | 95 | 125 | 8.0 | 15.0 | 0.00 | 0.00 | 0.00 | 33 | 1018.2 |
| 20260831185759 | 95 | 154 | 6.0 | 14.0 | 0.00 | 0.00 | 0.00 | 34 | 1018.3 |
| 20260831185259 | 95 | 178 | 6.0 | 14.0 | 0.00 | 0.00 | 0.00 | 36 | 1018.4 |
| 20260831184756 | 94 | 223 | 3.0 | 11.0 | 0.00 | 0.00 | 0.00 | 33 | 1018.3 |
| 20260831184256 | 95 | 209 | 6.0 | 12.0 | 0.00 | 0.00 | 0.00 | 33 | 1018.5 |
| 20260831184022 | 94 | 109 | 5.0 | 12.0 | 0.00 | 0.00 | 0.00 | 37 | 1018.6 |
| 20260831183802 | 94 | 109 | 5.0 | 12.0 | 0.00 | 0.00 | 0.00 | 37 | 1018.6 |
| 20260831183258 | 94 | 189 | 6.0 | 14.0 | 0.00 | 0.00 | 0.00 | 34 | 1018.6 |
| 20260831183018 | 94 | 113 | 6.0 | 15.0 | 0.00 | 0.00 | 0.00 | 36 | 1018.8 |
| 20260831182916 | 94 | 227 | 4.0 | 14.0 | 0.00 | 0.00 | 0.00 | 37 | 1018.6 |
| 20260831182015 | 94 | 113 | 4.0 | 11.0 | 0.00 | 0.00 | 0.00 | 35 | 1018.8 |
| 20260831181918 | 94 | 228 | 4.0 | 15.0 | 0.00 | 0.00 | 0.00 | 35 | 1018.7 |
| 20260831180758 | 94 | 152 | 5.0 | 14.0 | 0.00 | 0.00 | 0.00 | 36 | 1019.0 |
| 20260831180256 | 94 | 155 | 5.0 | 14.0 | 0.00 | 0.00 | 0.00 | 36 | 1019.0 |
| 20260831175757 | 94 | 233 | 5.0 | 12.0 | 0.00 | 0.00 | 0.00 | 38 | 1019.1 |
| 20260831175404 | 93 | 213 | 6.0 | 11.0 | 0.00 | 0.00 | 0.00 | 37 | 1019.2 |
| 20260831175332 | 92 | 171 | 5.0 | 12.0 | 0.00 | 0.00 | 0.00 | 38 | 1019.1 |
| 20260831174802 | 93 | 213 | 6.0 | 11.0 | 0.00 | 0.00 | 0.00 | 37 | 1019.2 |
| 20260831174624 | 92 | 175 | 4.0 | 11.0 | 0.00 | 0.00 | 0.00 | 40 | 1019.2 |
| 20260831173757 | 92 | 133 | 5.0 | 13.0 | 0.00 | 0.00 | 0.00 | 38 | 1019.2 |
| 20260831173629 | 93 | 238 | 6.0 | 13.0 | 0.00 | 0.00 | 0.00 | 40 | 1019.2 |
| 20260831172758 | 91 | 168 | 8.0 | 11.0 | 0.00 | 0.00 | 0.00 | 40 | 1019.3 |
| 20260831172257 | 92 | 178 | 5.0 | 13.0 | 0.00 | 0.00 | 0.00 | 40 | 1019.3 |
| 20260831171756 | 91 | 199 | 8.0 | 13.0 | 0.00 | 0.00 | 0.00 | 42 | 1019.4 |
| 20260831171258 | 91 | 151 | 6.0 | 11.0 | 0.00 | 0.00 | 0.00 | 43 | 1019.3 |
| 20260831170756 | 91 | 223 | 3.0 | 12.0 | 0.00 | 0.00 | 0.00 | 42 | 1019.3 |
| 20260831170639 | 90 | 175 | 6.0 | 12.0 | 0.00 | 0.00 | 0.00 | 44 | 1019.4 |
| 20260831165756 | 90 | 123 | 7.0 | 13.0 | 0.00 | 0.00 | 0.00 | 44 | 1019.4 |
| 20260831165257 | 90 | 209 | 7.0 | 13.0 | 0.00 | 0.00 | 0.00 | 42 | 1019.4 |
| 20260831165143 | 89 | 199 | 6.0 | 11.0 | 0.00 | 0.00 | 0.00 | 44 | 1019.4 |
| 20260831164257 | 88 | 206 | 3.0 | 11.0 | 0.00 | 0.00 | 0.00 | 45 | 1019.5 |
| 20260831164140 | 88 | 207 | 7.0 | 11.0 | 0.00 | 0.00 | 0.00 | 45 | 1019.5 |
| 20260831163257 | 88 | 235 | 3.0 | 12.0 | 0.00 | 0.00 | 0.00 | 46 | 1019.5 |
| 20260831162756 | 87 | 197 | 5.0 | 12.0 | 0.00 | 0.00 | 0.00 | 47 | 1019.5 |
| 20260831162301 | 87 | 173 | 3.0 | 9.0 | 0.00 | 0.00 | 0.00 | 46 | 1019.5 |
| 20260831161757 | 87 | 266 | 2.0 | 11.0 | 0.00 | 0.00 | 0.00 | 48 | 1019.4 |
| 20260831161257 | 87 | 241 | 5.0 | 11.0 | 0.00 | 0.00 | 0.00 | 47 | 1019.4 |
| 20260831161025 | 87 | 230 | 5.0 | 7.0 | 0.00 | 0.00 | 0.00 | 48 | 1019.4 |
| 20260831160630 | 86 | 203 | 3.0 | 11.0 | 0.00 | 0.00 | 0.00 | 48 | 1019.3 |
| 20260831160100 | 86 | 278 | 4.0 | 11.0 | 0.00 | 0.00 | 0.00 | 48 | 1019.2 |
| 20260831155256 | 86 | 238 | 6.0 | 11.0 | 0.00 | 0.00 | 0.00 | 49 | 1019.2 |
| 20260831154757 | 85 | 216 | 6.0 | 11.0 | 0.00 | 0.00 | 0.00 | 49 | 1019.3 |
| 20260831154257 | 85 | 257 | 5.0 | 10.0 | 0.00 | 0.00 | 0.00 | 48 | 1019.3 |
| 20260831153757 | 84 | 207 | 4.0 | 13.0 | 0.00 | 0.00 | 0.00 | 50 | 1019.3 |
| 20260831153256 | 83 | 164 | 5.0 | 13.0 | 0.00 | 0.00 | 0.00 | 51 | 1019.3 |
| 20260831152758 | 83 | 185 | 5.0 | 10.0 | 0.00 | 0.00 | 0.00 | 51 | 1019.3 |
| 20260831152258 | 83 | 247 | 3.0 | 12.0 | 0.00 | 0.00 | 0.00 | 51 | 1019.3 |
| 20260831151757 | 82 | 206 | 6.0 | 14.0 | 0.00 | 0.00 | 0.00 | 53 | 1019.2 |
| 20260831151256 | 82 | 141 | 6.0 | 14.0 | 0.00 | 0.00 | 0.00 | 51 | 1019.3 |
| 20260831150756 | 81 | 192 | 6.0 | 11.0 | 0.00 | 0.00 | 0.00 | 52 | 1019.3 |
| 20260831150629 | 81 | 183 | 5.0 | 11.0 | 0.00 | 0.00 | 0.00 | 53 | 1019.3 |
| 20260831145756 | 81 | 173 | 6.0 | 11.0 | 0.00 | 0.00 | 0.00 | 52 | 1019.3 |
| 20260831145258 | 80 | 223 | 4.0 | 9.0 | 0.00 | 0.00 | 0.00 | 53 | 1019.3 |
| 20260831144756 | 80 | 250 | 5.0 | 9.0 | 0.00 | 0.00 | 0.00 | 53 | 1019.4 |
| 20260831144255 | 80 | 250 | 3.0 | 7.0 | 0.00 | 0.00 | 0.00 | 53 | 1019.4 |
| 20260831143759 | 79 | 234 | 5.0 | 7.0 | 0.00 | 0.00 | 0.00 | 53 | 1019.4 |
| 20260831143256 | 79 | 243 | 2.0 | 6.0 | 0.00 | 0.00 | 0.00 | 54 | 1019.3 |
| 20260831142757 | 79 | 238 | 3.0 | 10.0 | 0.00 | 0.00 | 0.00 | 54 | 1019.3 |
| 20260831142258 | 79 | 228 | 4.0 | 10.0 | 0.00 | 0.00 | 0.00 | 53 | 1019.4 |
| 20260831141802 | 78 | 230 | 3.0 | 7.0 | 0.00 | 0.00 | 0.00 | 54 | 1019.4 |
| 20260831141629 | 78 | 248 | 4.0 | 7.0 | 0.00 | 0.00 | 0.00 | 54 | 1019.3 |
| 20260831140757 | 78 | 210 | 3.0 | 9.0 | 0.00 | 0.00 | 0.00 | 55 | 1019.2 |
| 20260831140255 | 77 | 173 | 4.0 | 9.0 | 0.00 | 0.00 | 0.00 | 56 | 1019.0 |
| 20260831140147 | 76 | 206 | 3.0 | 6.0 | 0.00 | 0.00 | 0.00 | 56 | 1019.1 |
| 20260831135256 | 76 | 233 | 2.0 | 5.0 | 0.00 | 0.00 | 0.00 | 57 | 1019.1 |
| 20260831134757 | 76 | 213 | 1.0 | 5.0 | 0.00 | 0.00 | 0.00 | 58 | 1019.0 |
| 20260831134259 | 75 | 216 | 2.0 | 4.0 | 0.00 | 0.00 | 0.00 | 57 | 1019.0 |
| 20260831133757 | 75 | 224 | 2.0 | 3.0 | 0.00 | 0.00 | 0.00 | 58 | 1019.0 |
| 20260831133255 | 74 | 173 | 0.0 | 0.0 | 0.00 | 0.00 | 0.00 | 59 | 1018.8 |
| 20260831132755 | 74 | 162 | 0.0 | 0.0 | 0.00 | 0.00 | 0.00 | 59 | 1018.7 |
| 20260831132306 | 74 | 272 | 0.0 | 0.0 | 0.00 | 0.00 | 0.00 | 59 | 1018.8 |
| 20260831131757 | 74 | 272 | 0.0 | 2.0 | 0.00 | 0.00 | 0.00 | 59 | 1018.7 |
| 20260831131559 | 74 | 275 | 0.0 | 2.0 | 0.00 | 0.00 | 0.00 | 59 | 1018.6 |
| 20260831130756 | 74 | 323 | 0.0 | 4.0 | 0.00 | 0.00 | 0.00 | 59 | 1018.5 |
| 20260831130257 | 74 | 0 | 2.0 | 5.0 | 0.00 | 0.00 | 0.00 | 59 | 1018.4 |
| 20260831125756 | 74 | 254 | 2.0 | 11.0 | 0.00 | 0.00 | 0.00 | 59 | 1018.3 |
| 20260831125257 | 73 | 244 | 5.0 | 11.0 | 0.00 | 0.00 | 0.00 | 60 | 1018.1 |
| 20260831124758 | 72 | 275 | 2.0 | 4.0 | 0.00 | 0.00 | 0.00 | 61 | 1018.0 |
| 20260831124635 | 72 | 283 | 0.0 | 4.0 | 0.00 | 0.00 | 0.00 | 60 | 1018.1 |
| 20260831124025 | 72 | 292 | 0.0 | 4.0 | 0.00 | 0.00 | 0.00 | 59 | 1018.0 |
| 20260831123257 | 73 | 293 | 1.0 | 6.0 | 0.00 | 0.00 | 0.00 | 59 | 1017.8 |
| 20260831123100 | 73 | 266 | 3.0 | 6.0 | 0.00 | 0.00 | 0.00 | 59 | 1017.7 |
| 20260831122637 | 73 | 245 | 2.0 | 6.0 | 0.00 | 0.00 | 0.00 | 58 | 1017.6 |
| 20260831121756 | 73 | 258 | 3.0 | 6.0 | 0.00 | 0.00 | 0.00 | 58 | 1017.4 |
| 20260831121258 | 73 | 220 | 3.0 | 7.0 | 0.00 | 0.00 | 0.00 | 58 | 1017.4 |
| 20260831120757 | 73 | 221 | 4.0 | 9.0 | 0.00 | 0.00 | 0.00 | 58 | 1017.2 |
| 20260831120257 | 73 | 226 | 2.0 | 9.0 | 0.00 | 0.00 | 0.00 | 58 | 1016.9 |
| 20260831115758 | 73 | 223 | 0.0 | 4.0 | 0.00 | 0.00 | 0.00 | 57 | 1017.1 |
| 20260831115257 | 73 | 245 | 1.0 | 6.0 | 0.00 | 0.00 | 0.00 | 57 | 1017.1 |
| 20260831115022 | 74 | 226 | 2.0 | 6.0 | 0.00 | 0.00 | 0.00 | 57 | 1016.9 |
| 20260831114800 | 74 | 226 | 2.0 | 6.0 | 0.00 | 0.00 | 0.00 | 57 | 1016.9 |
| 20260831114257 | 74 | 231 | 4.0 | 7.0 | 0.00 | 0.00 | 0.00 | 56 | 1016.7 |
| 20260831113801 | 74 | 234 | 3.0 | 7.0 | 0.00 | 0.00 | 0.00 | 56 | 1016.6 |
| 20260831113303 | 73 | 213 | 3.0 | 5.0 | 0.00 | 0.00 | 0.00 | 57 | 1016.7 |
| 20260831112801 | 74 | 193 | 3.0 | 5.0 | 0.00 | 0.00 | 0.00 | 56 | 1016.7 |
| 20260831112256 | 74 | 228 | 1.0 | 6.0 | 0.00 | 0.00 | 0.00 | 55 | 1016.8 |
| 20260831111758 | 74 | 202 | 3.0 | 9.0 | 0.00 | 0.00 | 0.00 | 55 | 1016.8 |
| 20260831111517 | 74 | 207 | 4.0 | 7.0 | 0.00 | 0.00 | 0.00 | 54 | 1016.6 |
| 20260831111356 | 74 | 223 | 4.0 | 9.0 | 0.00 | 0.00 | 0.00 | 55 | 1016.6 |
| 20260831110746 | 74 | 217 | 3.0 | 9.0 | 0.00 | 0.00 | 0.00 | 54 | 1016.6 |
| 20260831110528 | 74 | 217 | 3.0 | 9.0 | 0.00 | 0.00 | 0.00 | 54 | 1016.6 |
| 20260831110309 | 74 | 217 | 3.0 | 9.0 | 0.00 | 0.00 | 0.00 | 54 | 1016.6 |
| 20260831105757 | 74 | 248 | 4.0 | 9.0 | 0.00 | 0.00 | 0.00 | 54 | 1016.7 |
| 20260831105259 | 75 | 247 | 5.0 | 9.0 | 0.00 | 0.00 | 0.00 | 54 | 1016.4 |
| 20260831104758 | 75 | 220 | 5.0 | 9.0 | 0.00 | 0.00 | 0.00 | 53 | 1016.5 |
| 20260831104302 | 75 | 233 | 4.0 | 11.0 | 0.00 | 0.00 | 0.00 | 53 | 1016.5 |
| 20260831103801 | 75 | 169 | 4.0 | 12.0 | 0.00 | 0.00 | 0.00 | 53 | 1016.5 |
| 20260831103704 | 75 | 224 | 4.0 | 12.0 | 0.00 | 0.00 | 0.00 | 53 | 1016.5 |
| 20260831102758 | 75 | 199 | 5.0 | 13.0 | 0.00 | 0.00 | 0.00 | 53 | 1016.5 |
| 20260831102258 | 75 | 217 | 6.0 | 13.0 | 0.00 | 0.00 | 0.00 | 52 | 1016.5 |
| 20260831101801 | 76 | 183 | 5.0 | 15.0 | 0.00 | 0.00 | 0.00 | 51 | 1016.5 |
| 20260831101738 | 76 | 158 | 7.0 | 15.0 | 0.00 | 0.00 | 0.00 | 52 | 1016.5 |
| 20260831101119 | 75 | 202 | 6.0 | 11.0 | 0.00 | 0.00 | 0.00 | 53 | 1016.5 |
| 20260831100257 | 75 | 193 | 5.0 | 10.0 | 0.00 | 0.00 | 0.00 | 52 | 1016.5 |
| 20260831095759 | 76 | 196 | 5.0 | 10.0 | 0.00 | 0.00 | 0.00 | 51 | 1016.6 |
| 20260831095717 | 76 | 196 | 7.0 | 14.0 | 0.00 | 0.00 | 0.00 | 51 | 1016.6 |
| 20260831094802 | 76 | 219 | 8.0 | 14.0 | 0.00 | 0.00 | 0.00 | 52 | 1016.5 |
| 20260831094256 | 75 | 221 | 6.0 | 11.0 | 0.00 | 0.00 | 0.00 | 52 | 1016.5 |
| 20260831093757 | 76 | 185 | 7.0 | 11.0 | 0.00 | 0.00 | 0.00 | 52 | 1016.4 |
| 20260831093527 | 76 | 212 | 4.0 | 12.0 | 0.00 | 0.00 | 0.00 | 51 | 1016.5 |
| 20260831092756 | 76 | 220 | 5.0 | 12.0 | 0.00 | 0.00 | 0.00 | 51 | 1016.6 |
| 20260831092256 | 75 | 158 | 4.0 | 11.0 | 0.00 | 0.00 | 0.00 | 52 | 1016.5 |
| 20260831091757 | 76 | 221 | 5.0 | 11.0 | 0.00 | 0.00 | 0.00 | 51 | 1016.6 |
| 20260831091257 | 75 | 182 | 6.0 | 10.0 | 0.00 | 0.00 | 0.00 | 52 | 1016.6 |
| 20260831090757 | 76 | 224 | 4.0 | 7.0 | 0.00 | 0.00 | 0.00 | 51 | 1016.6 |
| 20260831090258 | 76 | 197 | 4.0 | 7.0 | 0.00 | 0.00 | 0.00 | 51 | 1016.7 |
| 20260831090015 | 76 | 171 | 3.0 | 6.0 | 0.00 | 0.00 | 0.00 | 52 | 1016.7 |
| 20260831085801 | 76 | 171 | 3.0 | 6.0 | 0.00 | 0.00 | 0.00 | 52 | 1016.7 |
| 20260831085259 | 75 | 210 | 3.0 | 7.0 | 0.00 | 0.00 | 0.00 | 52 | 1016.6 |
| 20260831084800 | 74 | 121 | 3.0 | 7.0 | 0.00 | 0.00 | 0.00 | 53 | 1016.6 |
| 20260831084300 | 74 | 224 | 3.0 | 6.0 | 0.00 | 0.00 | 0.00 | 53 | 1016.7 |
| 20260831084214 | 74 | 188 | 2.0 | 6.0 | 0.00 | 0.00 | 0.00 | 53 | 1016.6 |
| 20260831083259 | 75 | 224 | 3.0 | 6.0 | 0.00 | 0.00 | 0.00 | 53 | 1016.5 |
| 20260831082756 | 75 | 227 | 2.0 | 5.0 | 0.00 | 0.00 | 0.00 | 53 | 1016.4 |
| 20260831082256 | 74 | 159 | 3.0 | 5.0 | 0.00 | 0.00 | 0.00 | 53 | 1016.4 |
| 20260831081809 | 75 | 183 | 2.0 | 9.0 | 0.00 | 0.00 | 0.00 | 51 | 1016.2 |
| 20260831081756 | 75 | 148 | 2.0 | 5.0 | 0.00 | 0.00 | 0.00 | 53 | 1016.3 |
| 20260831081600 | 76 | 141 | 4.0 | 9.0 | 0.00 | 0.00 | 0.00 | 51 | 1016.2 |
| 20260831081419 | 75 | 155 | 3.0 | 5.0 | 0.00 | 0.00 | 0.00 | 52 | 1016.2 |
| 20260831075757 | 76 | 128 | 4.0 | 7.0 | 0.00 | 0.00 | 0.00 | 50 | 1016.2 |
| 20260831075256 | 76 | 144 | 3.0 | 7.0 | 0.00 | 0.00 | 0.00 | 50 | 1016.2 |
| 20260831074756 | 77 | 124 | 3.0 | 9.0 | 0.00 | 0.00 | 0.00 | 49 | 1016.2 |
| 20260831074634 | 77 | 161 | 4.0 | 10.0 | 0.00 | 0.00 | 0.00 | 49 | 1016.2 |
| 20260831074458 | 77 | 175 | 3.0 | 9.0 | 0.00 | 0.00 | 0.00 | 49 | 1016.3 |
| 20260831073304 | 77 | 173 | 5.0 | 10.0 | 0.00 | 0.00 | 0.00 | 48 | 1016.2 |
| 20260831072802 | 78 | 151 | 3.0 | 10.0 | 0.00 | 0.00 | 0.00 | 48 | 1016.2 |
| 20260831072258 | 78 | 121 | 4.0 | 11.0 | 0.00 | 0.00 | 0.00 | 48 | 1016.2 |
| 20260831071758 | 78 | 152 | 3.0 | 11.0 | 0.00 | 0.00 | 0.00 | 48 | 1016.2 |
| 20260831071749 | 78 | 206 | 4.0 | 10.0 | 0.00 | 0.00 | 0.00 | 47 | 1016.3 |
| 20260831071509 | 78 | 173 | 4.0 | 11.0 | 0.00 | 0.00 | 0.00 | 47 | 1016.3 |
| 20260831070255 | 78 | 135 | 3.0 | 12.0 | 0.00 | 0.00 | 0.00 | 47 | 1016.3 |
| 20260831070241 | 78 | 124 | 6.0 | 12.0 | 0.00 | 0.00 | 0.00 | 47 | 1016.3 |
| 20260831065541 | 78 | 185 | 6.0 | 12.0 | 0.00 | 0.00 | 0.00 | 47 | 1016.3 |
| 20260831065313 | 78 | 185 | 6.0 | 12.0 | 0.00 | 0.00 | 0.00 | 47 | 1016.3 |
| 20260831064758 | 77 | 182 | 4.0 | 12.0 | 0.00 | 0.00 | 0.00 | 47 | 1016.2 |
| 20260831064256 | 77 | 186 | 5.0 | 10.0 | 0.00 | 0.00 | 0.00 | 47 | 1016.3 |
| 20260831063804 | 77 | 176 | 4.0 | 10.0 | 0.00 | 0.00 | 0.00 | 47 | 1016.2 |
| 20260831063300 | 77 | 251 | 4.0 | 10.0 | 0.00 | 0.00 | 0.00 | 47 | 1016.2 |
| 20260831063135 | 78 | 165 | 4.0 | 11.0 | 0.00 | 0.00 | 0.00 | 46 | 1016.1 |
| 20260831062257 | 78 | 171 | 5.0 | 11.0 | 0.00 | 0.00 | 0.00 | 46 | 1016.2 |
| 20260831061805 | 78 | 186 | 5.0 | 10.0 | 0.00 | 0.00 | 0.00 | 46 | 1016.1 |
| 20260831061257 | 78 | 168 | 3.0 | 7.0 | 0.00 | 0.00 | 0.00 | 46 | 1016.2 |
| 20260831060757 | 78 | 195 | 3.0 | 6.0 | 0.00 | 0.00 | 0.00 | 46 | 1016.2 |
| 20260831060256 | 78 | 142 | 3.0 | 7.0 | 0.00 | 0.00 | 0.00 | 45 | 1016.2 |
| 20260831055756 | 78 | 145 | 4.0 | 9.0 | 0.00 | 0.00 | 0.00 | 45 | 1016.2 |
| 20260831055618 | 79 | 157 | 3.0 | 5.0 | 0.00 | 0.00 | 0.00 | 45 | 1016.1 |
| 20260831055436 | 78 | 151 | 3.0 | 9.0 | 0.00 | 0.00 | 0.00 | 45 | 1016.2 |
| 20260831054654 | 79 | 210 | 3.0 | 9.0 | 0.00 | 0.00 | 0.00 | 44 | 1016.1 |
| 20260831053756 | 80 | 147 | 4.0 | 9.0 | 0.00 | 0.00 | 0.00 | 44 | 1016.1 |
| 20260831053300 | 80 | 158 | 3.0 | 7.0 | 0.00 | 0.00 | 0.00 | 43 | 1015.9 |
| 20260831052758 | 80 | 209 | 4.0 | 7.0 | 0.00 | 0.00 | 0.00 | 43 | 1015.9 |
| 20260831052301 | 80 | 159 | 4.0 | 7.0 | 0.00 | 0.00 | 0.00 | 43 | 1015.8 |
| 20260831051800 | 81 | 154 | 4.0 | 10.0 | 0.00 | 0.00 | 0.00 | 42 | 1015.8 |
| 20260831051258 | 81 | 186 | 4.0 | 10.0 | 0.00 | 0.00 | 0.00 | 42 | 1015.7 |
| 20260831050758 | 81 | 80 | 5.0 | 10.0 | 0.00 | 0.00 | 0.00 | 42 | 1015.7 |
| 20260831050256 | 81 | 182 | 5.0 | 7.0 | 0.00 | 0.00 | 0.00 | 41 | 1015.7 |
| 20260831045756 | 81 | 165 | 4.0 | 9.0 | 0.00 | 0.00 | 0.00 | 41 | 1015.6 |
| 20260831045522 | 82 | 190 | 4.0 | 13.0 | 0.00 | 0.00 | 0.00 | 41 | 1015.6 |
| 20260831045307 | 82 | 121 | 4.0 | 11.0 | 0.00 | 0.00 | 0.00 | 41 | 1015.6 |
| 20260831045248 | 82 | 190 | 4.0 | 13.0 | 0.00 | 0.00 | 0.00 | 41 | 1015.6 |
| 20260831044332 | 82 | 120 | 5.0 | 7.0 | 0.00 | 0.00 | 0.00 | 40 | 1015.6 |
| 20260831044305 | 82 | 206 | 4.0 | 13.0 | 0.00 | 0.00 | 0.00 | 40 | 1015.6 |
| 20260831043648 | 82 | 197 | 4.0 | 11.0 | 0.00 | 0.00 | 0.00 | 41 | 1015.5 |
| 20260831042756 | 82 | 172 | 4.0 | 12.0 | 0.00 | 0.00 | 0.00 | 40 | 1015.6 |
| 20260831042255 | 82 | 145 | 6.0 | 12.0 | 0.00 | 0.00 | 0.00 | 40 | 1015.5 |
| 20260831042035 | 82 | 164 | 5.0 | 10.0 | 0.00 | 0.00 | 0.00 | 41 | 1015.6 |
| 20260831041803 | 82 | 164 | 5.0 | 10.0 | 0.00 | 0.00 | 0.00 | 41 | 1015.6 |
| 20260831041317 | 83 | 166 | 5.0 | 13.0 | 0.00 | 0.00 | 0.00 | 40 | 1015.6 |
| 20260831040820 | 83 | 235 | 7.0 | 12.0 | 0.00 | 0.00 | 0.00 | 40 | 1015.5 |
| 20260831040806 | 83 | 176 | 7.0 | 13.0 | 0.00 | 0.00 | 0.00 | 40 | 1015.6 |
| 20260831035818 | 83 | 127 | 4.0 | 10.0 | 0.00 | 0.00 | 0.00 | 39 | 1015.5 |
| 20260831035807 | 84 | 168 | 5.0 | 13.0 | 0.00 | 0.00 | 0.00 | 39 | 1015.4 |
| 20260831035757 | 83 | 124 | 4.0 | 11.0 | 0.00 | 0.00 | 0.00 | 40 | 1015.5 |
| 20260831034626 | 84 | 176 | 5.0 | 11.0 | 0.00 | 0.00 | 0.00 | 39 | 1015.4 |
| 20260831033539 | 84 | 117 | 5.0 | 13.0 | 0.00 | 0.00 | 0.00 | 39 | 1015.3 |
| 20260831033320 | 84 | 117 | 5.0 | 13.0 | 0.00 | 0.00 | 0.00 | 39 | 1015.3 |
| 20260831032803 | 84 | 73 | 4.0 | 10.0 | 0.00 | 0.00 | 0.00 | 39 | 1015.3 |
| 20260831032259 | 84 | 133 | 5.0 | 11.0 | 0.00 | 0.00 | 0.00 | 39 | 1015.3 |
| 20260831032146 | 85 | 138 | 5.0 | 12.0 | 0.00 | 0.00 | 0.00 | 38 | 1015.3 |
| 20260831031737 | 85 | 113 | 4.0 | 15.0 | 0.00 | 0.00 | 0.00 | 38 | 1015.3 |
| 20260831031253 | 85 | 114 | 7.0 | 15.0 | 0.00 | 0.00 | 0.00 | 38 | 1015.1 |
| 20260831031018 | 85 | 114 | 7.0 | 15.0 | 0.00 | 0.00 | 0.00 | 38 | 1015.1 |
| 20260831030805 | 85 | 114 | 7.0 | 15.0 | 0.00 | 0.00 | 0.00 | 38 | 1015.1 |
| 20260831030700 | 85 | 195 | 6.0 | 13.0 | 0.00 | 0.00 | 0.00 | 38 | 1014.9 |
| 20260831025758 | 85 | 172 | 5.0 | 11.0 | 0.00 | 0.00 | 0.00 | 38 | 1014.9 |
| 20260831025516 | 85 | 182 | 4.0 | 11.0 | 0.00 | 0.00 | 0.00 | 38 | 1014.8 |
| 20260831024756 | 85 | 166 | 6.0 | 12.0 | 0.00 | 0.00 | 0.00 | 38 | 1014.7 |
| 20260831024256 | 86 | 183 | 3.0 | 12.0 | 0.00 | 0.00 | 0.00 | 37 | 1014.7 |
| 20260831023756 | 86 | 107 | 5.0 | 12.0 | 0.00 | 0.00 | 0.00 | 37 | 1014.6 |
| 20260831023257 | 86 | 117 | 6.0 | 14.0 | 0.00 | 0.00 | 0.00 | 37 | 1014.7 |
| 20260831022755 | 87 | 144 | 5.0 | 14.0 | 0.00 | 0.00 | 0.00 | 36 | 1014.5 |
| 20260831022257 | 87 | 217 | 5.0 | 14.0 | 0.00 | 0.00 | 0.00 | 36 | 1014.4 |
| 20260831021758 | 87 | 127 | 5.0 | 14.0 | 0.00 | 0.00 | 0.00 | 36 | 1014.4 |
| 20260831021302 | 88 | 164 | 7.0 | 14.0 | 0.00 | 0.00 | 0.00 | 36 | 1014.3 |
| 20260831021135 | 88 | 145 | 6.0 | 14.0 | 0.00 | 0.00 | 0.00 | 35 | 1014.3 |
| 20260831020651 | 88 | 110 | 7.0 | 13.0 | 0.00 | 0.00 | 0.00 | 35 | 1014.0 |
| 20260831015755 | 88 | 134 | 3.0 | 13.0 | 0.00 | 0.00 | 0.00 | 34 | 1014.2 |
| 20260831015449 | 89 | 117 | 5.0 | 15.0 | 0.00 | 0.00 | 0.00 | 34 | 1014.2 |
| 20260831015256 | 89 | 166 | 5.0 | 15.0 | 0.00 | 0.00 | 0.00 | 34 | 1014.2 |
| 20260831014259 | 89 | 140 | 4.0 | 12.0 | 0.00 | 0.00 | 0.00 | 33 | 1014.0 |
| 20260831013758 | 89 | 168 | 5.0 | 13.0 | 0.00 | 0.00 | 0.00 | 33 | 1013.9 |
| 20260831013255 | 90 | 212 | 5.0 | 13.0 | 0.00 | 0.00 | 0.00 | 33 | 1013.9 |
| 20260831012756 | 90 | 138 | 7.0 | 14.0 | 0.00 | 0.00 | 0.00 | 33 | 1013.9 |
| 20260831012257 | 90 | 140 | 4.0 | 14.0 | 0.00 | 0.00 | 0.00 | 32 | 1013.9 |
| 20260831012210 | 91 | 179 | 4.0 | 12.0 | 0.00 | 0.00 | 0.00 | 32 | 1013.9 |
| 20260831011255 | 91 | 168 | 5.0 | 13.0 | 0.00 | 0.00 | 0.00 | 32 | 1013.9 |
| 20260831010758 | 91 | 168 | 6.0 | 13.0 | 0.00 | 0.00 | 0.00 | 31 | 1013.8 |
| 20260831010255 | 92 | 166 | 4.0 | 12.0 | 0.00 | 0.00 | 0.00 | 31 | 1013.7 |
| 20260831005755 | 92 | 121 | 5.0 | 11.0 | 0.00 | 0.00 | 0.00 | 31 | 1013.8 |
| 20260831005257 | 92 | 152 | 5.0 | 12.0 | 0.00 | 0.00 | 0.00 | 31 | 1013.8 |
| 20260831004800 | 93 | 133 | 6.0 | 15.0 | 0.00 | 0.00 | 0.00 | 30 | 1013.6 |
| 20260831004523 | 93 | 131 | 8.0 | 16.0 | 0.00 | 0.00 | 0.00 | 30 | 1013.6 |
| 20260831003759 | 93 | 128 | 6.0 | 16.0 | 0.00 | 0.00 | 0.00 | 29 | 1013.6 |
| 20260831003255 | 93 | 182 | 6.0 | 18.0 | 0.00 | 0.00 | 0.00 | 30 | 1013.6 |
| 20260831002755 | 94 | 134 | 8.0 | 18.0 | 0.00 | 0.00 | 0.00 | 29 | 1013.6 |
| 20260831002255 | 94 | 159 | 5.0 | 16.0 | 0.00 | 0.00 | 0.00 | 29 | 1013.6 |
| 20260831001755 | 94 | 151 | 6.0 | 17.0 | 0.00 | 0.00 | 0.00 | 30 | 1013.5 |
| 20260831001257 | 95 | 157 | 8.0 | 17.0 | 0.00 | 0.00 | 0.00 | 28 | 1013.6 |
| 20260831000755 | 95 | 169 | 4.0 | 17.0 | 0.00 | 0.00 | 0.00 | 28 | 1013.5 |
| 20260831000256 | 95 | 182 | 7.0 | 17.0 | 0.00 | 0.00 | 0.00 | 27 | 1013.6 |
| 20260830235755 | 96 | 216 | 5.0 | 17.0 | 0.00 | 0.00 | 0.00 | 28 | 1013.6 |
| 20260830235642 | 96 | 161 | 8.0 | 17.0 | 0.00 | 0.00 | 0.00 | 27 | 1013.6 |
| 20260830234755 | 96 | 224 | 8.0 | 16.0 | 0.00 | 0.00 | 0.00 | 28 | 1013.6 |
| 20260830234254 | 97 | 107 | 6.0 | 17.0 | 0.00 | 0.00 | 0.00 | 27 | 1013.6 |
| 20260830233757 | 97 | 131 | 7.0 | 16.0 | 0.00 | 0.00 | 0.00 | 28 | 1013.6 |
| 20260830233255 | 97 | 185 | 5.0 | 16.0 | 0.00 | 0.00 | 0.00 | 27 | 1013.6 |
| 20260830232758 | 97 | 213 | 6.0 | 16.0 | 0.00 | 0.00 | 0.00 | 27 | 1013.6 |
| 20260830232305 | 97 | 173 | 6.0 | 15.0 | 0.00 | 0.00 | 0.00 | 27 | 1013.6 |